TimeEST,TemperatureF,Dew PointF,Humidity,Sea Level PressureIn,VisibilityMPH,Wind Direction,Wind SpeedMPH,Gust SpeedMPH,PrecipitationIn,Events,Conditions,WindDirDegrees,DateUTC
12:53 AM,35.1,24.1,64,29.65,10.0,NW,4.6,-,N/A,,Overcast,320,2013-03-03 05:53:00
1:02 AM,35.6,24.8,65,29.64,10.0,NW,4.6,-,N/A,,Overcast,310,2013-03-03 06:02:00
1:53 AM,35.1,24.1,64,29.64,10.0,NW,5.8,-,N/A,,Overcast,310,2013-03-03 06:53:00
2:53 AM,34.0,24.1,67,29.62,10.0,NW,6.9,-,N/A,,Overcast,320,2013-03-03 07:53:00
3:24 AM,33.8,24.8,70,29.62,10.0,NNW,4.6,-,N/A,,Overcast,340,2013-03-03 08:24:00
3:53 AM,34.0,24.1,67,29.62,10.0,NW,3.5,-,N/A,,Overcast,320,2013-03-03 08:53:00
4:53 AM,34.0,24.1,67,29.62,10.0,NW,3.5,-,N/A,,Overcast,310,2013-03-03 09:53:00
5:53 AM,34.0,25.0,70,29.63,10.0,WNW,4.6,-,N/A,,Overcast,300,2013-03-03 10:53:00
6:10 AM,33.8,24.8,70,29.63,10.0,WNW,4.6,-,N/A,,Overcast,300,2013-03-03 11:10:00
6:20 AM,33.8,24.8,70,29.63,10.0,WNW,3.5,-,N/A,,Overcast,300,2013-03-03 11:20:00
6:53 AM,34.0,24.1,67,29.63,10.0,WNW,4.6,-,N/A,,Overcast,290,2013-03-03 11:53:00
7:53 AM,34.0,24.1,67,29.64,10.0,WNW,5.8,-,N/A,,Overcast,300,2013-03-03 12:53:00
8:53 AM,35.1,24.1,64,29.63,10.0,NW,6.9,-,N/A,,Overcast,310,2013-03-03 13:53:00
9:53 AM,36.0,25.0,64,29.62,10.0,WNW,5.8,-,N/A,,Overcast,300,2013-03-03 14:53:00
10:53 AM,37.9,26.1,62,29.61,10.0,NNW,5.8,-,N/A,,Overcast,340,2013-03-03 15:53:00
11:53 AM,39.0,26.1,60,29.60,10.0,West,6.9,-,N/A,,Overcast,280,2013-03-03 16:53:00
12:53 PM,42.1,28.0,58,29.57,10.0,West,5.8,-,N/A,,Overcast,280,2013-03-03 17:53:00
1:53 PM,42.1,28.0,58,29.56,10.0,NW,6.9,-,N/A,,Overcast,320,2013-03-03 18:53:00
2:53 PM,42.1,28.9,60,29.56,10.0,WNW,9.2,-,N/A,,Overcast,300,2013-03-03 19:53:00
3:53 PM,42.1,28.9,60,29.56,10.0,NW,9.2,-,N/A,,Overcast,320,2013-03-03 20:53:00
4:53 PM,39.9,30.0,68,29.57,10.0,WNW,9.2,-,N/A,,Overcast,290,2013-03-03 21:53:00
5:53 PM,37.0,32.0,82,29.59,10.0,WNW,8.1,-,N/A,,Overcast,300,2013-03-03 22:53:00
6:53 PM,36.0,32.0,86,29.60,10.0,WNW,6.9,26.5,N/A,,Overcast,300,2013-03-03 23:53:00
7:53 PM,35.1,32.0,89,29.61,10.0,WNW,5.8,-,N/A,,Overcast,300,2013-03-04 00:53:00
8:32 PM,33.8,32.0,93,29.61,6.0,WNW,6.9,-,0.00,Snow,Light Snow,290,2013-03-04 01:32:00
8:53 PM,34.0,32.0,92,29.61,5.0,West,8.1,-,0.00,Snow,Light Snow,280,2013-03-04 01:53:00
9:53 PM,34.0,30.9,89,29.61,5.0,West,6.9,-,0.00,Snow,Light Snow,280,2013-03-04 02:53:00
10:53 PM,33.1,30.0,89,29.60,10.0,West,5.8,-,0.00,,Overcast,280,2013-03-04 03:53:00
11:53 PM,34.0,28.0,79,29.60,10.0,West,6.9,-,N/A,,Overcast,280,2013-03-04 04:53:00